| time (UTC) | temp F | wind direction | speed MPH | gust MPH | rain 1hr in | rain 24hr in | rain mn in | humidity % | barometer mb |
| 20260901201808 | 65 | 249 | 1.0 | 6.0 | 0.00 | 0.00 | 0.00 | 71 | 1019.3 |
| 20260901200905 | 65 | 223 | 1.0 | 5.0 | 0.00 | 0.00 | 0.00 | 71 | 1019.2 |
| 20260901200003 | 66 | 230 | 1.0 | 6.0 | 0.00 | 0.00 | 0.00 | 71 | 1019.1 |
| 20260901195405 | 66 | 178 | 1.0 | 6.0 | 0.00 | 0.00 | 0.00 | 71 | 1019.0 |
| 20260901194506 | 66 | 222 | 2.0 | 7.0 | 0.00 | 0.00 | 0.00 | 70 | 1018.9 |
| 20260901193603 | 66 | 201 | 1.0 | 5.0 | 0.00 | 0.00 | 0.00 | 70 | 1019.0 |
| 20260901192704 | 66 | 216 | 1.0 | 4.0 | 0.00 | 0.00 | 0.00 | 70 | 1019.0 |
| 20260901191806 | 66 | 221 | 1.0 | 4.0 | 0.00 | 0.00 | 0.00 | 69 | 1019.1 |
| 20260901190905 | 67 | 249 | 1.0 | 8.0 | 0.00 | 0.00 | 0.00 | 68 | 1019.1 |
| 20260901190003 | 67 | 212 | 2.0 | 6.0 | 0.00 | 0.00 | 0.00 | 68 | 1019.0 |
| 20260901185615 | 67 | 213 | 1.0 | 5.0 | 0.00 | 0.00 | 0.00 | 67 | 1019.0 |
| 20260901184508 | 68 | 217 | 2.0 | 10.0 | 0.00 | 0.00 | 0.00 | 66 | 1018.9 |
| 20260901183603 | 68 | 226 | 1.0 | 5.0 | 0.00 | 0.00 | 0.00 | 65 | 1018.8 |
| 20260901182705 | 69 | 225 | 1.0 | 8.0 | 0.00 | 0.00 | 0.00 | 65 | 1019.0 |
| 20260901182015 | 69 | 227 | 2.0 | 7.0 | 0.00 | 0.00 | 0.00 | 65 | 1019.0 |
| 20260901180904 | 69 | 213 | 1.0 | 4.0 | 0.00 | 0.00 | 0.00 | 63 | 1018.8 |
| 20260901180006 | 70 | 240 | 1.0 | 8.0 | 0.00 | 0.00 | 0.00 | 61 | 1018.7 |
| 20260901175403 | 70 | 191 | 1.0 | 4.0 | 0.00 | 0.00 | 0.00 | 60 | 1018.7 |
| 20260901174718 | 70 | 212 | 1.0 | 7.0 | 0.00 | 0.00 | 0.00 | 59 | 1018.7 |
| 20260901173603 | 70 | 238 | 2.0 | 9.0 | 0.00 | 0.00 | 0.00 | 56 | 1018.8 |
| 20260901172703 | 71 | 217 | 1.0 | 7.0 | 0.00 | 0.00 | 0.00 | 54 | 1018.7 |
| 20260901171805 | 71 | 240 | 1.0 | 4.0 | 0.00 | 0.00 | 0.00 | 52 | 1018.7 |
| 20260901170903 | 71 | 197 | 1.0 | 8.0 | 0.00 | 0.00 | 0.00 | 51 | 1018.6 |
| 20260901170003 | 72 | 206 | 1.0 | 7.0 | 0.00 | 0.00 | 0.00 | 50 | 1018.6 |
| 20260901165403 | 72 | 221 | 1.0 | 7.0 | 0.00 | 0.00 | 0.00 | 49 | 1018.5 |
| 20260901164505 | 72 | 256 | 2.0 | 7.0 | 0.00 | 0.00 | 0.00 | 48 | 1018.5 |
| 20260901163604 | 72 | 243 | 1.0 | 6.0 | 0.00 | 0.00 | 0.00 | 48 | 1018.6 |
| 20260901162706 | 72 | 231 | 1.0 | 7.0 | 0.00 | 0.00 | 0.00 | 47 | 1018.6 |
| 20260901161803 | 73 | 224 | 1.0 | 7.0 | 0.00 | 0.00 | 0.00 | 47 | 1018.5 |
| 20260901160903 | 73 | 191 | 1.0 | 3.0 | 0.00 | 0.00 | 0.00 | 47 | 1018.6 |
| 20260901160006 | 73 | 229 | 1.0 | 4.0 | 0.00 | 0.00 | 0.00 | 47 | 1018.7 |
| 20260901155403 | 74 | 250 | 1.0 | 4.0 | 0.00 | 0.00 | 0.00 | 46 | 1018.7 |
| 20260901154503 | 74 | 230 | 2.0 | 7.0 | 0.00 | 0.00 | 0.00 | 46 | 1018.8 |
| 20260901153817 | 75 | 234 | 1.0 | 7.0 | 0.00 | 0.00 | 0.00 | 45 | 1018.8 |
| 20260901152705 | 75 | 258 | 1.0 | 5.0 | 0.00 | 0.00 | 0.00 | 45 | 1019.0 |
| 20260901151804 | 74 | 272 | 1.0 | 5.0 | 0.00 | 0.00 | 0.00 | 47 | 1018.8 |
| 20260901150904 | 73 | 245 | 0.0 | 4.0 | 0.00 | 0.00 | 0.00 | 49 | 1019.0 |
| 20260901150005 | 73 | 255 | 1.0 | 4.0 | 0.00 | 0.00 | 0.00 | 48 | 1018.9 |
| 20260901145405 | 73 | 265 | 2.0 | 8.0 | 0.00 | 0.00 | 0.00 | 47 | 1018.9 |
| 20260901144505 | 74 | 244 | 1.0 | 4.0 | 0.00 | 0.00 | 0.00 | 47 | 1019.1 |
| 20260901143603 | 74 | 258 | 2.0 | 6.0 | 0.00 | 0.00 | 0.00 | 48 | 1019.1 |
| 20260901141805 | 74 | 272 | 1.0 | 6.0 | 0.00 | 0.00 | 0.00 | 47 | 1019.1 |
| 20260901140903 | 73 | 346 | 1.0 | 3.0 | 0.00 | 0.00 | 0.00 | 49 | 1019.1 |
| 20260901140005 | 73 | 275 | 1.0 | 5.0 | 0.00 | 0.00 | 0.00 | 49 | 1019.2 |
| 20260901135403 | 74 | 328 | 1.0 | 5.0 | 0.00 | 0.00 | 0.00 | 50 | 1019.2 |
| 20260901134505 | 73 | 227 | 1.0 | 7.0 | 0.00 | 0.00 | 0.00 | 52 | 1019.3 |
| 20260901133605 | 71 | 245 | 2.0 | 7.0 | 0.00 | 0.00 | 0.00 | 52 | 1019.2 |
| 20260901132703 | 72 | 218 | 1.0 | 6.0 | 0.00 | 0.00 | 0.00 | 53 | 1019.3 |
| 20260901131805 | 72 | 227 | 1.0 | 9.0 | 0.00 | 0.00 | 0.00 | 54 | 1019.4 |
| 20260901131115 | 73 | 239 | 1.0 | 9.0 | 0.00 | 0.00 | 0.00 | 53 | 1019.5 |
| 20260901130003 | 73 | 264 | 1.0 | 4.0 | 0.00 | 0.00 | 0.00 | 54 | 1019.5 |
| 20260901125614 | 72 | 221 | 1.0 | 4.0 | 0.00 | 0.00 | 0.00 | 55 | 1019.6 |
| 20260901124505 | 73 | 89 | 1.0 | 5.0 | 0.00 | 0.00 | 0.00 | 55 | 1019.6 |
| 20260901123605 | 73 | 251 | 2.0 | 8.0 | 0.00 | 0.00 | 0.00 | 53 | 1019.8 |
| 20260901122704 | 72 | 170 | 1.0 | 7.0 | 0.00 | 0.00 | 0.00 | 55 | 1019.8 |
| 20260901122019 | 72 | 212 | 2.0 | 7.0 | 0.00 | 0.00 | 0.00 | 55 | 1019.7 |
| 20260901120903 | 72 | 223 | 1.0 | 5.0 | 0.00 | 0.00 | 0.00 | 54 | 1019.9 |
| 20260901120003 | 71 | 238 | 2.0 | 9.0 | 0.00 | 0.00 | 0.00 | 56 | 1019.8 |
| 20260901115405 | 71 | 208 | 1.0 | 4.0 | 0.00 | 0.00 | 0.00 | 55 | 1019.8 |
| 20260901114504 | 72 | 206 | 1.0 | 3.0 | 0.00 | 0.00 | 0.00 | 53 | 1019.7 |
| 20260901113605 | 72 | 226 | 2.0 | 7.0 | 0.00 | 0.00 | 0.00 | 52 | 1019.8 |
| 20260901112703 | 72 | 268 | 1.0 | 5.0 | 0.00 | 0.00 | 0.00 | 52 | 1019.8 |
| 20260901111805 | 72 | 207 | 2.0 | 6.0 | 0.00 | 0.00 | 0.00 | 52 | 1019.8 |
| 20260901110903 | 72 | 227 | 1.0 | 5.0 | 0.00 | 0.00 | 0.00 | 51 | 1019.9 |
| 20260901110005 | 72 | 260 | 1.0 | 5.0 | 0.00 | 0.00 | 0.00 | 52 | 1019.9 |
| 20260901105403 | 71 | 258 | 1.0 | 8.0 | 0.00 | 0.00 | 0.00 | 54 | 1019.8 |
| 20260901104713 | 71 | 290 | 1.0 | 5.0 | 0.00 | 0.01 | 0.00 | 53 | 1019.8 |
| 20260901103605 | 70 | 245 | 2.0 | 6.0 | 0.00 | 0.01 | 0.00 | 54 | 1019.8 |
| 20260901102705 | 70 | 253 | 1.0 | 6.0 | 0.00 | 0.01 | 0.00 | 54 | 1020.1 |
| 20260901101805 | 70 | 224 | 1.0 | 7.0 | 0.00 | 0.01 | 0.00 | 53 | 1020.1 |
| 20260901100905 | 70 | 158 | 0.0 | 4.0 | 0.00 | 0.01 | 0.00 | 55 | 1020.4 |
| 20260901100005 | 69 | 224 | 0.0 | 3.0 | 0.00 | 0.01 | 0.00 | 56 | 1020.4 |
| 20260901095403 | 69 | 249 | 0.0 | 1.0 | 0.00 | 0.01 | 0.00 | 56 | 1020.5 |
| 20260901094503 | 68 | 274 | 0.0 | 1.0 | 0.00 | 0.01 | 0.00 | 57 | 1020.5 |
| 20260901093605 | 68 | 261 | 0.0 | 4.0 | 0.00 | 0.01 | 0.00 | 59 | 1020.6 |
| 20260901092705 | 67 | 254 | 0.0 | 1.0 | 0.00 | 0.01 | 0.00 | 60 | 1020.6 |
| 20260901091803 | 66 | 0 | 0.0 | 0.0 | 0.00 | 0.01 | 0.00 | 64 | 1020.4 |
| 20260901090905 | 66 | 245 | 0.0 | 3.0 | 0.00 | 0.01 | 0.00 | 62 | 1020.4 |
| 20260901090006 | 67 | 203 | 0.0 | 2.0 | 0.00 | 0.01 | 0.00 | 62 | 1020.3 |
| 20260901085617 | 66 | 217 | 0.0 | 2.0 | 0.00 | 0.01 | 0.00 | 65 | 1020.3 |
| 20260901084505 | 66 | 259 | 0.0 | 2.0 | 0.00 | 0.01 | 0.00 | 67 | 1020.4 |
| 20260901083607 | 65 | 259 | 0.0 | 2.0 | 0.00 | 0.01 | 0.00 | 68 | 1020.4 |
| 20260901082705 | 64 | 259 | 0.0 | 1.0 | 0.00 | 0.01 | 0.00 | 71 | 1020.2 |
| 20260901082016 | 63 | 0 | 0.0 | 0.0 | 0.00 | 0.01 | 0.00 | 73 | 1020.1 |
| 20260901080905 | 62 | 259 | 0.0 | 2.0 | 0.00 | 0.01 | 0.00 | 73 | 1020.1 |
| 20260901080006 | 62 | 259 | 0.0 | 1.0 | 0.00 | 0.01 | 0.00 | 75 | 1019.9 |
| 20260901075617 | 61 | 259 | 0.0 | 1.0 | 0.00 | 0.01 | 0.00 | 76 | 1019.8 |
| 20260901074503 | 60 | 259 | 0.0 | 1.0 | 0.00 | 0.01 | 0.00 | 79 | 1019.9 |
| 20260901073603 | 58 | 259 | 0.0 | 1.0 | 0.00 | 0.01 | 0.00 | 82 | 1019.8 |
| 20260901072705 | 57 | 259 | 0.0 | 1.0 | 0.00 | 0.01 | 0.00 | 84 | 1019.7 |
| 20260901072017 | 57 | 259 | 0.0 | 1.0 | 0.00 | 0.01 | 0.00 | 84 | 1019.8 |
| 20260901070905 | 56 | 259 | 0.0 | 1.0 | 0.00 | 0.01 | 0.00 | 85 | 1019.7 |
| 20260901070003 | 56 | 251 | 0.0 | 6.0 | 0.00 | 0.01 | 0.00 | 85 | 1019.8 |
| 20260901065613 | 56 | 245 | 0.0 | 4.0 | 0.00 | 0.01 | 0.00 | 86 | 1019.8 |
| 20260901064506 | 56 | 244 | 0.0 | 3.0 | 0.00 | 0.01 | 0.00 | 87 | 1019.7 |
| 20260901063603 | 55 | 244 | 0.0 | 3.0 | 0.00 | 0.01 | 0.00 | 87 | 1019.5 |
| 20260901062703 | 55 | 243 | 0.0 | 2.0 | 0.00 | 0.01 | 0.00 | 88 | 1019.4 |
| 20260901061803 | 55 | 243 | 0.0 | 1.0 | 0.00 | 0.01 | 0.00 | 88 | 1019.6 |
| 20260901061115 | 55 | 0 | 0.0 | 0.0 | 0.00 | 0.01 | 0.00 | 88 | 1019.5 |
| 20260901060004 | 54 | 244 | 0.0 | 1.0 | 0.00 | 0.01 | 0.00 | 89 | 1019.4 |
| 20260901055614 | 54 | 244 | 0.0 | 1.0 | 0.00 | 0.01 | 0.00 | 89 | 1019.4 |
| 20260901054716 | 54 | 248 | 0.0 | 2.0 | 0.00 | 0.01 | 0.00 | 90 | 1019.2 |
| 20260901053605 | 54 | 273 | 0.0 | 1.0 | 0.00 | 0.01 | 0.00 | 90 | 1019.2 |
| 20260901052705 | 53 | 273 | 0.0 | 1.0 | 0.00 | 0.01 | 0.00 | 90 | 1019.2 |
| 20260901051805 | 53 | 273 | 0.0 | 1.0 | 0.00 | 0.01 | 0.00 | 89 | 1019.1 |
| 20260901050903 | 53 | 0 | 0.0 | 0.0 | 0.00 | 0.01 | 0.00 | 89 | 1019.0 |
| 20260901050003 | 53 | 0 | 0.0 | 0.0 | 0.00 | 0.01 | 0.00 | 89 | 1019.0 |
| 20260901045405 | 53 | 0 | 0.0 | 0.0 | 0.00 | 0.01 | 0.00 | 89 | 1018.9 |
| 20260901044506 | 53 | 274 | 0.0 | 1.0 | 0.00 | 0.01 | 0.00 | 88 | 1018.8 |
| 20260901043814 | 54 | 0 | 0.0 | 0.0 | 0.00 | 0.01 | 0.00 | 88 | 1018.9 |
| 20260901042703 | 54 | 0 | 0.0 | 0.0 | 0.00 | 0.01 | 0.00 | 88 | 1019.0 |
| 20260901041805 | 54 | 0 | 0.0 | 0.0 | 0.00 | 0.01 | 0.00 | 87 | 1019.0 |
| 20260901040905 | 54 | 273 | 0.0 | 1.0 | 0.00 | 0.01 | 0.00 | 87 | 1018.7 |
| 20260901040005 | 54 | 0 | 0.0 | 0.0 | 0.00 | 0.01 | 0.00 | 86 | 1018.8 |
| 20260901035615 | 54 | 273 | 0.0 | 1.0 | 0.00 | 0.01 | 0.00 | 86 | 1018.7 |
| 20260901034504 | 55 | 273 | 0.0 | 1.0 | 0.00 | 0.01 | 0.00 | 86 | 1018.7 |
| 20260901033820 | 55 | 0 | 0.0 | 0.0 | 0.00 | 0.01 | 0.00 | 86 | 1018.7 |
| 20260901032703 | 55 | 0 | 0.0 | 0.0 | 0.00 | 0.01 | 0.00 | 85 | 1018.8 |
| 20260901031803 | 55 | 0 | 0.0 | 0.0 | 0.00 | 0.01 | 0.00 | 84 | 1018.7 |
| 20260901031117 | 55 | 0 | 0.0 | 0.0 | 0.00 | 0.01 | 0.00 | 84 | 1018.8 |
| 20260901030005 | 56 | 0 | 0.0 | 0.0 | 0.00 | 0.01 | 0.00 | 83 | 1018.7 |
| 20260901025405 | 56 | 273 | 0.0 | 1.0 | 0.00 | 0.01 | 0.00 | 83 | 1018.7 |
| 20260901024503 | 56 | 273 | 0.0 | 1.0 | 0.00 | 0.01 | 0.00 | 82 | 1018.8 |
| 20260901023606 | 56 | 273 | 0.0 | 1.0 | 0.00 | 0.01 | 0.00 | 82 | 1018.8 |
| 20260901022705 | 57 | 0 | 0.0 | 0.0 | 0.00 | 0.01 | 0.00 | 81 | 1018.7 |
| 20260901021804 | 57 | 0 | 0.0 | 0.0 | 0.00 | 0.01 | 0.00 | 80 | 1018.7 |
| 20260901020903 | 57 | 0 | 0.0 | 0.0 | 0.00 | 0.01 | 0.00 | 79 | 1018.7 |
| 20260901020005 | 58 | 0 | 0.0 | 0.0 | 0.00 | 0.01 | 0.00 | 79 | 1018.7 |
| 20260901015403 | 58 | 0 | 0.0 | 0.0 | 0.00 | 0.01 | 0.00 | 79 | 1018.6 |
| 20260901014505 | 58 | 0 | 0.0 | 0.0 | 0.00 | 0.01 | 0.00 | 79 | 1018.7 |
| 20260901013816 | 58 | 273 | 0.0 | 1.0 | 0.00 | 0.01 | 0.00 | 78 | 1018.7 |
| 20260901012705 | 58 | 273 | 0.0 | 1.0 | 0.00 | 0.01 | 0.00 | 78 | 1018.6 |
| 20260901011803 | 59 | 273 | 0.0 | 1.0 | 0.00 | 0.01 | 0.00 | 77 | 1018.6 |
| 20260901010906 | 59 | 0 | 0.0 | 0.0 | 0.00 | 0.01 | 0.00 | 76 | 1018.6 |
| 20260901010003 | 60 | 0 | 0.0 | 0.0 | 0.00 | 0.01 | 0.00 | 76 | 1018.6 |
| 20260901005403 | 60 | 273 | 0.0 | 1.0 | 0.00 | 0.01 | 0.00 | 76 | 1018.5 |
| 20260901004505 | 60 | 0 | 0.0 | 0.0 | 0.00 | 0.01 | 0.00 | 75 | 1018.5 |
| 20260901003605 | 60 | 273 | 0.0 | 3.0 | 0.00 | 0.01 | 0.00 | 74 | 1018.5 |
| 20260901002705 | 61 | 273 | 0.0 | 3.0 | 0.00 | 0.01 | 0.00 | 74 | 1018.5 |
| 20260901001803 | 61 | 275 | 0.0 | 1.0 | 0.00 | 0.01 | 0.00 | 73 | 1018.4 |
| 20260901000905 | 61 | 276 | 0.0 | 3.0 | 0.00 | 0.02 | 0.00 | 73 | 1018.5 |
| 20260901000005 | 62 | 279 | 0.0 | 3.0 | 0.00 | 0.02 | 0.00 | 72 | 1018.4 |
| 20260831235403 | 62 | 284 | 0.0 | 1.0 | 0.00 | 0.02 | 0.00 | 72 | 1018.3 |
| 20260831234715 | 62 | 290 | 0.0 | 3.0 | 0.00 | 0.02 | 0.00 | 71 | 1018.4 |
| 20260831233603 | 62 | 238 | 0.0 | 4.0 | 0.00 | 0.02 | 0.00 | 70 | 1018.2 |
| 20260831232705 | 63 | 239 | 0.0 | 4.0 | 0.00 | 0.02 | 0.00 | 70 | 1018.2 |
| 20260831231803 | 63 | 239 | 0.0 | 3.0 | 0.00 | 0.02 | 0.00 | 70 | 1018.1 |
| 20260831230906 | 63 | 252 | 0.0 | 3.0 | 0.00 | 0.02 | 0.00 | 70 | 1018.1 |
| 20260831230003 | 63 | 252 | 0.0 | 2.0 | 0.00 | 0.02 | 0.00 | 69 | 1018.0 |
| 20260831225405 | 63 | 252 | 0.0 | 2.0 | 0.00 | 0.02 | 0.02 | 69 | 1018.1 |
| 20260831224715 | 63 | 252 | 0.0 | 2.0 | 0.00 | 0.02 | 0.02 | 69 | 1018.1 |
| 20260831223604 | 64 | 254 | 0.0 | 3.0 | 0.00 | 0.02 | 0.02 | 68 | 1018.1 |
| 20260831222705 | 64 | 281 | 0.0 | 3.0 | 0.00 | 0.02 | 0.02 | 68 | 1018.0 |
| 20260831221803 | 64 | 307 | 0.0 | 1.0 | 0.00 | 0.02 | 0.02 | 68 | 1017.9 |
| 20260831220906 | 64 | 308 | 0.0 | 1.0 | 0.00 | 0.02 | 0.02 | 68 | 1017.8 |
| 20260831220005 | 64 | 284 | 0.0 | 4.0 | 0.00 | 0.02 | 0.02 | 68 | 1017.8 |
| 20260831215614 | 64 | 273 | 0.0 | 4.0 | 0.00 | 0.02 | 0.02 | 68 | 1017.8 |
| 20260831214504 | 64 | 248 | 0.0 | 3.0 | 0.00 | 0.02 | 0.02 | 68 | 1017.7 |
| 20260831213605 | 64 | 253 | 1.0 | 3.0 | 0.00 | 0.02 | 0.02 | 69 | 1017.7 |
| 20260831212703 | 64 | 271 | 0.0 | 4.0 | 0.00 | 0.02 | 0.02 | 70 | 1017.5 |
| 20260831211803 | 64 | 261 | 1.0 | 4.0 | 0.00 | 0.02 | 0.02 | 71 | 1017.4 |
| 20260831210903 | 64 | 250 | 0.0 | 2.0 | 0.00 | 0.02 | 0.02 | 72 | 1017.5 |
| 20260831210218 | 64 | 250 | 0.0 | 2.0 | 0.00 | 0.02 | 0.02 | 72 | 1017.3 |
| 20260831204717 | 64 | 248 | 0.0 | 2.0 | 0.00 | 0.02 | 0.02 | 72 | 1016.9 |
| 20260831203605 | 65 | 248 | 0.0 | 1.0 | 0.00 | 0.05 | 0.02 | 71 | 1016.7 |
| 20260831202704 | 65 | 248 | 0.0 | 1.0 | 0.00 | 0.05 | 0.02 | 70 | 1016.7 |